Showing default

COSMOS 2524, 43032

Orbit data source: Space-Track

COSMOS 2524, 43032 is a payload satellite owned by VVKO VKS (CIS) in LEO that was launched on Sat, 02 Dec 2017 UTC via a SOYUZ-2-1B launch vehicle from the Plesetsk Missile And Space Complex (PKMTR). Payload-class satellites include a variety of spacecraft equipped with specific instruments for various scientific and technological missions. These include communications satellites like Starlink; space stations such as the ISS; scientific satellites like the Hubble; Earth observation satellites from companies like Planet Labs, Umbra, and HawkEye 360; GPS; miniature CubeSats for education and research; and military/defense satellites.

Loading next visibility...
Identifier
43032, 2017-076A
Orbit
LEO
Country
Flag of CISCIS
Related business
Manufacturer
TSSKBP/ARSLO
Mission
Operational Defense Sigint
Bus & Motor
YANTAR'-LOTOS, 11D428
Mass
6,575 kg wet, ~6,500 kg dry
Launch date (UTC)
2017-12-02 (8 years ago)
Launch vehicle
SOYUZ-2-1B
Launch site
Plesetsk Missile And Space Complex (PKMTR)
Object type
Payload
Rocket body
Debris
Shape & HBR
Cyl + 2 Pan, 3.1 m
Radar Cross Section
16.222 m², Large (>1 m²)

Expand to show TLE details & history
Last TLE update: 9 hours ago

TLE from 9 hours ago
0 COSMOS 2524
1 43032U 17076A   25347.01462685  .00000051  00000-0  90214-4 0  9992
2 43032  67.1468 285.5820 0010306 274.5837  85.4071 13.97399711409594
Epoch: 2025-12-13T00:21Z
TLE epoch observation values (Epoch: 2025-12-13T00:21:03.759Z)
Latitude
-0.00001°
Longitude
-161.63164°
Altitude
904.329 km
Speed
7.401 km/s
True Right ascension
19h 02m 19s
True Declination
0° 00' 00"
Sunlit
Object was in daylight at epoch
Visualization orbit readout
Latitude
Unknown
Longitude
Unknown
Altitude
Unknown
Speed
Unknown
Apparent Right ascension
Unknown
Apparent Declination
Unknown
Sunlit
N/A
Visualization observer readout
Local Sidereal Time
07:32:38
Azimuth
Unknown
Elevation
Unknown
Doppler factor
Unknown
Orbital elements
Apogee altitude
908.664 km
Perigee altitude
893.66 km
Semi-major axis
7,279.299 km
Eccentricity
0.00103
Inclination
67.1468°
RAAN
285.582°
Arg. of periapsis
274.5837°
True anomaly
85.52483°
Mean anomaly
85.4071°
Eccentric anomaly
85.46596°
Mean motion
3.49469 °/min
Orbital period
103.01 mins
BSTAR
0.000090214
Loading maneuver chart data...
Computing Atmospheric mass density...
Loading historical data...
Loading historical data...
Loading historical data...
Loading historical data...
Loading historical data...
Loading historical data...
Loading historical data...
Other satellites on launch #76 in the year 2017 (2017-12-02 UTC)

Documentation

Showing up to 5 results
|